Year,Month,Day,Hour,Minute,Value (Times are PST for windgust in km/hr)
2013,04,29,00,00,8.10
2013,04,29,00,01,12.90
2013,04,29,00,02,3.20
2013,04,29,00,03,3.20
2013,04,29,00,04,4.80
2013,04,29,00,05,6.40
2013,04,29,00,06,4.80
2013,04,29,00,07,12.90
2013,04,29,00,08,11.30
2013,04,29,00,09,4.80
2013,04,29,00,10,9.60
2013,04,29,00,11,16.10
2013,04,29,00,12,11.30
2013,04,29,00,13,11.30
2013,04,29,00,14,11.30
2013,04,29,00,15,6.40
2013,04,29,00,16,6.40
2013,04,29,00,17,8.10
2013,04,29,00,18,3.20
2013,04,29,00,19,1.60
2013,04,29,00,20,4.80
2013,04,29,00,21,8.10
2013,04,29,00,22,4.80
2013,04,29,00,23,4.80
2013,04,29,00,24,3.20
2013,04,29,00,25,1.60
2013,04,29,00,26,1.60
2013,04,29,00,27,6.40
2013,04,29,00,28,1.60
2013,04,29,00,29,6.40
2013,04,29,00,30,3.20
2013,04,29,00,31,3.20
2013,04,29,00,32,4.80
2013,04,29,00,33,4.80
2013,04,29,00,34,3.20
2013,04,29,00,35,3.20
2013,04,29,00,36,3.20
2013,04,29,00,37,3.20
2013,04,29,00,38,1.60
2013,04,29,00,39,1.60
2013,04,29,00,40,9.60
2013,04,29,00,41,3.20
2013,04,29,00,42,6.40
2013,04,29,00,43,4.80
2013,04,29,00,44,8.10
2013,04,29,00,45,3.20
2013,04,29,00,46,1.60
2013,04,29,00,47,4.80
2013,04,29,00,48,11.30
2013,04,29,00,49,4.80
2013,04,29,00,50,3.20
2013,04,29,00,51,20.90
2013,04,29,00,52,19.30
2013,04,29,00,53,14.50
2013,04,29,00,54,8.10
2013,04,29,00,55,11.30
2013,04,29,00,56,9.60
2013,04,29,00,57,11.30
2013,04,29,00,58,9.60
2013,04,29,00,59,8.10
2013,04,29,01,00,16.10
2013,04,29,01,01,14.50
2013,04,29,01,02,9.60
2013,04,29,01,03,11.30
2013,04,29,01,04,8.10
2013,04,29,01,05,11.30
2013,04,29,01,06,11.30
2013,04,29,01,07,8.10
2013,04,29,01,08,16.10
2013,04,29,01,09,14.50
2013,04,29,01,10,9.60
2013,04,29,01,11,9.60
2013,04,29,01,12,9.60
2013,04,29,01,13,3.20
2013,04,29,01,14,9.60
2013,04,29,01,15,9.60
2013,04,29,01,16,4.80
2013,04,29,01,17,16.10
2013,04,29,01,18,14.50
2013,04,29,01,19,8.10
2013,04,29,01,20,17.70
2013,04,29,01,21,9.60
2013,04,29,01,22,6.40
2013,04,29,01,23,16.10
2013,04,29,01,24,11.30
2013,04,29,01,25,6.40
2013,04,29,01,26,4.80
2013,04,29,01,27,9.60
2013,04,29,01,28,6.40
2013,04,29,01,29,6.40
2013,04,29,01,30,9.60
2013,04,29,01,31,8.10
2013,04,29,01,32,4.80
2013,04,29,01,33,4.80
2013,04,29,01,34,11.30
2013,04,29,01,35,17.70
2013,04,29,01,36,11.30
2013,04,29,01,37,6.40
2013,04,29,01,38,9.60
2013,04,29,01,39,19.30
2013,04,29,01,40,16.10
2013,04,29,01,41,11.30
2013,04,29,01,42,16.10
2013,04,29,01,43,6.40
2013,04,29,01,44,8.10
2013,04,29,01,45,19.30
2013,04,29,01,46,17.70
2013,04,29,01,47,11.30
2013,04,29,01,48,14.50
2013,04,29,01,49,3.20
2013,04,29,01,50,3.20
2013,04,29,01,51,11.30
2013,04,29,01,52,9.60
2013,04,29,01,53,6.40
2013,04,29,01,54,14.50
2013,04,29,01,55,9.60
2013,04,29,01,56,6.40
2013,04,29,01,57,11.30
2013,04,29,01,58,8.10
2013,04,29,01,59,16.10
2013,04,29,02,00,16.10
2013,04,29,02,01,8.10
2013,04,29,02,02,11.30
2013,04,29,02,03,19.30
2013,04,29,02,04,8.10
2013,04,29,02,05,3.20
2013,04,29,02,06,6.40
2013,04,29,02,07,9.60
2013,04,29,02,08,9.60
2013,04,29,02,09,9.60
2013,04,29,02,10,9.60
2013,04,29,02,11,8.10
2013,04,29,02,12,8.10
2013,04,29,02,13,8.10
2013,04,29,02,14,3.20
2013,04,29,02,15,8.10
2013,04,29,02,16,12.90
2013,04,29,02,17,16.10
2013,04,29,02,18,9.60
2013,04,29,02,19,1.60
2013,04,29,02,20,1.60
2013,04,29,02,21,8.10
2013,04,29,02,22,8.10
2013,04,29,02,23,9.60
2013,04,29,02,24,6.40
2013,04,29,02,25,6.40
2013,04,29,02,26,9.60
2013,04,29,02,27,16.10
2013,04,29,02,28,8.10
2013,04,29,02,29,17.70
2013,04,29,02,30,17.70
2013,04,29,02,31,8.10
2013,04,29,02,32,12.90
2013,04,29,02,33,9.60
2013,04,29,02,34,6.40
2013,04,29,02,35,16.10
2013,04,29,02,36,4.80
2013,04,29,02,37,25.70
2013,04,29,02,38,19.30
2013,04,29,02,39,8.10
2013,04,29,02,40,9.60
2013,04,29,02,41,9.60
2013,04,29,02,42,8.10
2013,04,29,02,43,6.40
2013,04,29,02,44,11.30
2013,04,29,02,45,4.80
2013,04,29,02,46,17.70
2013,04,29,02,47,6.40
2013,04,29,02,48,4.80
2013,04,29,02,49,14.50
2013,04,29,02,50,12.90
2013,04,29,02,51,16.10
2013,04,29,02,52,8.10
2013,04,29,02,53,19.30
2013,04,29,02,54,16.10
2013,04,29,02,55,12.90
2013,04,29,02,56,6.40
2013,04,29,02,57,12.90
2013,04,29,02,58,11.30
2013,04,29,02,59,3.20
2013,04,29,03,00,16.10
2013,04,29,03,01,11.30
2013,04,29,03,02,16.10
2013,04,29,03,03,16.10
2013,04,29,03,04,11.30
2013,04,29,03,05,6.40
2013,04,29,03,06,11.30
2013,04,29,03,07,11.30
2013,04,29,03,08,9.60
2013,04,29,03,09,8.10
2013,04,29,03,10,8.10
2013,04,29,03,11,12.90
2013,04,29,03,12,14.50
2013,04,29,03,13,9.60
2013,04,29,03,14,11.30
2013,04,29,03,15,3.20
2013,04,29,03,16,4.80
2013,04,29,03,17,6.40
2013,04,29,03,18,14.50
2013,04,29,03,19,11.30
2013,04,29,03,20,11.30
2013,04,29,03,21,12.90
2013,04,29,03,22,9.60
2013,04,29,03,23,3.20
2013,04,29,03,24,4.80
2013,04,29,03,25,9.60
2013,04,29,03,26,16.10
2013,04,29,03,27,4.80
2013,04,29,03,28,9.60
2013,04,29,03,29,6.40
2013,04,29,03,30,4.80
2013,04,29,03,31,6.40
2013,04,29,03,32,9.60
2013,04,29,03,33,1.60
2013,04,29,03,34,4.80
2013,04,29,03,35,6.40
2013,04,29,03,36,6.40
2013,04,29,03,37,1.60
2013,04,29,03,38,11.30
2013,04,29,03,39,6.40
2013,04,29,03,40,6.40
2013,04,29,03,41,4.80
2013,04,29,03,42,3.20
2013,04,29,03,43,9.60
2013,04,29,03,44,6.40
2013,04,29,03,45,8.10
2013,04,29,03,46,4.80
2013,04,29,03,47,3.20
2013,04,29,03,48,6.40
2013,04,29,03,49,6.40
2013,04,29,03,50,8.10
2013,04,29,03,51,11.30
2013,04,29,03,52,6.40
2013,04,29,03,53,14.50
2013,04,29,03,54,6.40
2013,04,29,03,55,11.30
2013,04,29,03,56,4.80
2013,04,29,03,57,11.30
2013,04,29,03,58,6.40
2013,04,29,03,59,19.30
2013,04,29,04,00,11.30
2013,04,29,04,01,6.40
2013,04,29,04,02,4.80
2013,04,29,04,03,16.10
2013,04,29,04,04,8.10
2013,04,29,04,05,8.10
2013,04,29,04,06,4.80
2013,04,29,04,07,11.30
2013,04,29,04,08,6.40
2013,04,29,04,09,9.60
2013,04,29,04,10,9.60
2013,04,29,04,11,14.50
2013,04,29,04,12,16.10
2013,04,29,04,13,17.70
2013,04,29,04,14,17.70
2013,04,29,04,15,22.50
2013,04,29,04,16,24.20
2013,04,29,04,17,11.30
2013,04,29,04,18,16.10
2013,04,29,04,19,16.10
2013,04,29,04,20,11.30
2013,04,29,04,21,9.60
2013,04,29,04,22,8.10
2013,04,29,04,23,8.10
2013,04,29,04,24,17.70
2013,04,29,04,25,16.10
2013,04,29,04,26,17.70
2013,04,29,04,27,16.10
2013,04,29,04,28,9.60
2013,04,29,04,29,19.30
2013,04,29,04,30,9.60
2013,04,29,04,31,22.50
2013,04,29,04,32,17.70
2013,04,29,04,33,20.90
2013,04,29,04,34,24.20
2013,04,29,04,35,19.30
2013,04,29,04,36,16.10
2013,04,29,04,37,19.30
2013,04,29,04,38,17.70
2013,04,29,04,39,17.70
2013,04,29,04,40,16.10
2013,04,29,04,41,20.90
2013,04,29,04,42,14.50
2013,04,29,04,43,17.70
2013,04,29,04,44,22.50
2013,04,29,04,45,12.90
2013,04,29,04,46,22.50
2013,04,29,04,47,16.10
2013,04,29,04,48,11.30
2013,04,29,04,49,17.70
2013,04,29,04,50,11.30
2013,04,29,04,51,9.60
2013,04,29,04,52,9.60
2013,04,29,04,53,22.50
2013,04,29,04,54,19.30
2013,04,29,04,55,22.50
2013,04,29,04,56,17.70
2013,04,29,04,57,20.90
2013,04,29,04,58,27.40
2013,04,29,04,59,25.70
2013,04,29,05,00,11.30
2013,04,29,05,01,16.10
2013,04,29,05,02,14.50
2013,04,29,05,03,25.70
2013,04,29,05,04,25.70
2013,04,29,05,05,11.30
2013,04,29,05,06,17.70
2013,04,29,05,07,16.10
2013,04,29,05,08,14.50
2013,04,29,05,09,17.70
2013,04,29,05,10,6.40
2013,04,29,05,11,6.40
2013,04,29,05,12,9.60
2013,04,29,05,13,16.10
2013,04,29,05,14,11.30
2013,04,29,05,15,11.30
2013,04,29,05,16,9.60
2013,04,29,05,17,4.80
2013,04,29,05,18,11.30
2013,04,29,05,19,11.30
2013,04,29,05,20,17.70
2013,04,29,05,21,14.50
2013,04,29,05,22,19.30
2013,04,29,05,23,14.50
2013,04,29,05,24,17.70
2013,04,29,05,25,14.50
2013,04,29,05,26,16.10
2013,04,29,05,27,17.70
2013,04,29,05,28,20.90
2013,04,29,05,29,12.90
2013,04,29,05,30,16.10
2013,04,29,05,31,14.50
2013,04,29,05,32,20.90
2013,04,29,05,33,22.50
2013,04,29,05,34,11.30
2013,04,29,05,35,11.30
2013,04,29,05,36,6.40
2013,04,29,05,37,6.40
2013,04,29,05,38,16.10
2013,04,29,05,39,16.10
2013,04,29,05,40,14.50
2013,04,29,05,41,8.10
2013,04,29,05,42,6.40
2013,04,29,05,43,8.10
2013,04,29,05,44,14.50
2013,04,29,05,45,6.40
2013,04,29,05,46,17.70
2013,04,29,05,47,14.50
2013,04,29,05,48,16.10
2013,04,29,05,49,9.60
2013,04,29,05,50,14.50
2013,04,29,05,51,16.10
2013,04,29,05,52,17.70
2013,04,29,05,53,20.90
2013,04,29,05,54,9.60
2013,04,29,05,55,25.70
2013,04,29,05,56,9.60
2013,04,29,05,57,16.10
2013,04,29,05,58,16.10
2013,04,29,05,59,14.50
2013,04,29,06,00,17.70
2013,04,29,06,01,14.50
2013,04,29,06,02,14.50
2013,04,29,06,03,16.10
2013,04,29,06,04,14.50
2013,04,29,06,05,8.10
2013,04,29,06,06,19.30
2013,04,29,06,07,14.50
2013,04,29,06,08,19.30
2013,04,29,06,09,16.10
2013,04,29,06,10,11.30
2013,04,29,06,11,19.30
2013,04,29,06,12,12.90
2013,04,29,06,13,14.50
2013,04,29,06,14,11.30
2013,04,29,06,15,4.80
2013,04,29,06,16,8.10
2013,04,29,06,17,8.10
2013,04,29,06,18,6.40
2013,04,29,06,19,9.60
2013,04,29,06,20,4.80
2013,04,29,06,21,14.50
2013,04,29,06,22,1.60
2013,04,29,06,23,4.80
2013,04,29,06,24,3.20
2013,04,29,06,25,4.80
2013,04,29,06,26,6.40
2013,04,29,06,27,8.10
2013,04,29,06,28,4.80
2013,04,29,06,29,8.10
2013,04,29,06,30,8.10
2013,04,29,06,31,6.40
2013,04,29,06,32,3.20
2013,04,29,06,33,4.80
2013,04,29,06,34,3.20
2013,04,29,06,35,3.20
2013,04,29,06,36,9.60
2013,04,29,06,37,4.80
2013,04,29,06,38,14.50
2013,04,29,06,39,6.40
2013,04,29,06,40,4.80
2013,04,29,06,41,1.60
2013,04,29,06,42,4.80
2013,04,29,06,43,8.10
2013,04,29,06,44,9.60
2013,04,29,06,45,6.40
2013,04,29,06,46,4.80
2013,04,29,06,47,4.80
2013,04,29,06,48,3.20
2013,04,29,06,49,3.20
2013,04,29,06,50,11.30
2013,04,29,06,51,4.80
2013,04,29,06,52,9.60
2013,04,29,06,53,9.60
2013,04,29,06,54,6.40
2013,04,29,06,55,8.10
2013,04,29,06,56,6.40
2013,04,29,06,57,1.60
2013,04,29,06,58,1.60
2013,04,29,06,59,6.40
2013,04,29,07,00,4.80
2013,04,29,07,01,3.20
2013,04,29,07,02,4.80
2013,04,29,07,03,4.80
2013,04,29,07,06,6.40
2013,04,29,07,07,9.60
2013,04,29,07,08,3.20
2013,04,29,07,09,8.10
2013,04,29,07,10,8.10
2013,04,29,07,11,11.30
2013,04,29,07,12,6.40
2013,04,29,07,13,4.80
2013,04,29,07,14,8.10
2013,04,29,07,15,8.10
2013,04,29,07,16,6.40
2013,04,29,07,17,8.10
2013,04,29,07,18,9.60
2013,04,29,07,19,8.10
2013,04,29,07,20,9.60
2013,04,29,07,21,8.10
2013,04,29,07,22,4.80
2013,04,29,07,23,8.10
2013,04,29,07,24,9.60
2013,04,29,07,25,4.80
2013,04,29,07,26,3.20
2013,04,29,07,27,6.40
2013,04,29,07,28,6.40
2013,04,29,07,29,9.60
2013,04,29,07,30,11.30
2013,04,29,07,31,6.40
2013,04,29,07,32,11.30
2013,04,29,07,33,11.30
2013,04,29,07,34,4.80
2013,04,29,07,35,3.20
2013,04,29,07,36,17.70
2013,04,29,07,37,12.90
2013,04,29,07,38,17.70
2013,04,29,07,39,16.10
2013,04,29,07,40,4.80
2013,04,29,07,41,9.60
2013,04,29,07,42,6.40
2013,04,29,07,43,11.30
2013,04,29,07,44,16.10
2013,04,29,07,45,8.10
2013,04,29,07,46,9.60
2013,04,29,07,47,6.40
2013,04,29,07,48,6.40
2013,04,29,07,49,3.20
2013,04,29,07,50,1.60
2013,04,29,07,51,11.30
2013,04,29,07,52,9.60
2013,04,29,07,53,6.40
2013,04,29,07,54,8.10
2013,04,29,07,55,6.40
2013,04,29,07,56,8.10
2013,04,29,07,57,12.90
2013,04,29,07,58,17.70
2013,04,29,07,59,11.30
2013,04,29,08,00,14.50
2013,04,29,08,01,17.70
2013,04,29,08,02,8.10
2013,04,29,08,03,9.60
2013,04,29,08,04,20.90
2013,04,29,08,05,19.30
2013,04,29,08,06,16.10
2013,04,29,08,07,24.20
2013,04,29,08,08,12.90
2013,04,29,08,09,9.60
2013,04,29,08,10,11.30
2013,04,29,08,11,4.80
2013,04,29,08,12,11.30
2013,04,29,08,13,11.30
2013,04,29,08,14,9.60
2013,04,29,08,15,11.30
2013,04,29,08,16,9.60
2013,04,29,08,17,9.60
2013,04,29,08,18,16.10
2013,04,29,08,19,6.40
2013,04,29,08,20,8.10
2013,04,29,08,21,29.00
2013,04,29,08,22,19.30
2013,04,29,08,23,16.10
2013,04,29,08,24,17.70
2013,04,29,08,25,27.40
2013,04,29,08,26,22.50
2013,04,29,08,27,16.10
2013,04,29,08,28,11.30
2013,04,29,08,29,16.10
2013,04,29,08,30,9.60
2013,04,29,08,31,19.30
2013,04,29,08,32,11.30
2013,04,29,08,33,14.50
2013,04,29,08,34,6.40
2013,04,29,08,35,9.60
2013,04,29,08,36,20.90
2013,04,29,08,37,19.30
2013,04,29,08,38,16.10
2013,04,29,08,39,14.50
2013,04,29,08,40,11.30
2013,04,29,08,41,14.50
2013,04,29,08,42,9.60
2013,04,29,08,43,27.40
2013,04,29,08,44,25.70
2013,04,29,08,45,11.30
2013,04,29,08,46,12.90
2013,04,29,08,47,16.10
2013,04,29,08,48,12.90
2013,04,29,08,49,8.10
2013,04,29,08,50,14.50
2013,04,29,08,51,14.50
2013,04,29,08,52,19.30
2013,04,29,08,53,20.90
2013,04,29,08,54,16.10
2013,04,29,08,55,16.10
2013,04,29,08,56,24.20
2013,04,29,08,57,16.10
2013,04,29,08,58,17.70
2013,04,29,08,59,24.20
2013,04,29,09,00,16.10
2013,04,29,09,01,16.10
2013,04,29,09,02,20.90
2013,04,29,09,03,16.10
2013,04,29,09,04,19.30
2013,04,29,09,05,16.10
2013,04,29,09,06,17.70
2013,04,29,09,07,14.50
2013,04,29,09,08,27.40
2013,04,29,09,09,20.90
2013,04,29,09,10,16.10
2013,04,29,09,11,19.30
2013,04,29,09,12,16.10
2013,04,29,09,13,19.30
2013,04,29,09,14,20.90
2013,04,29,09,15,11.30
2013,04,29,09,16,17.70
2013,04,29,09,17,24.20
2013,04,29,09,18,11.30
2013,04,29,09,19,19.30
2013,04,29,09,20,19.30
2013,04,29,09,21,14.50
2013,04,29,09,22,25.70
2013,04,29,09,23,12.90
2013,04,29,09,24,16.10
2013,04,29,09,25,11.30
2013,04,29,09,26,11.30
2013,04,29,09,27,19.30
2013,04,29,09,28,9.60
2013,04,29,09,29,17.70
2013,04,29,09,30,16.10
2013,04,29,09,31,22.50
2013,04,29,09,32,20.90
2013,04,29,09,33,16.10
2013,04,29,09,34,12.90
2013,04,29,09,35,14.50
2013,04,29,09,36,20.90
2013,04,29,09,37,16.10
2013,04,29,09,38,25.70
2013,04,29,09,39,22.50
2013,04,29,09,40,20.90
2013,04,29,09,41,16.10
2013,04,29,09,42,16.10
2013,04,29,09,43,11.30
2013,04,29,09,44,16.10
2013,04,29,09,45,9.60
2013,04,29,09,46,16.10
2013,04,29,09,47,14.50
2013,04,29,09,48,4.80
2013,04,29,09,49,6.40
2013,04,29,09,50,8.10
2013,04,29,09,51,8.10
2013,04,29,09,52,19.30
2013,04,29,09,53,12.90
2013,04,29,09,54,8.10
2013,04,29,09,55,9.60
2013,04,29,09,56,16.10
2013,04,29,09,57,16.10
2013,04,29,09,58,16.10
2013,04,29,09,59,17.70
2013,04,29,10,00,14.50
2013,04,29,10,01,25.70
2013,04,29,10,02,14.50
2013,04,29,10,03,20.90
2013,04,29,10,04,19.30
2013,04,29,10,05,16.10
2013,04,29,10,06,19.30
2013,04,29,10,07,17.70
2013,04,29,10,08,11.30
2013,04,29,10,09,14.50
2013,04,29,10,10,20.90
2013,04,29,10,11,19.30
2013,04,29,10,12,14.50
2013,04,29,10,13,11.30
2013,04,29,10,14,9.60
2013,04,29,10,15,24.20
2013,04,29,10,16,16.10
2013,04,29,10,17,19.30
2013,04,29,10,18,14.50
2013,04,29,10,19,27.40
2013,04,29,10,20,19.30
2013,04,29,10,21,11.30
2013,04,29,10,22,16.10
2013,04,29,10,23,14.50
2013,04,29,10,24,16.10
2013,04,29,10,25,16.10
2013,04,29,10,26,16.10
2013,04,29,10,27,20.90
2013,04,29,10,28,20.90
2013,04,29,10,29,22.50
2013,04,29,10,30,14.50
2013,04,29,10,31,6.40
2013,04,29,10,32,9.60
2013,04,29,10,33,19.30
2013,04,29,10,34,22.50
2013,04,29,10,35,22.50
2013,04,29,10,36,12.90
2013,04,29,10,37,14.50
2013,04,29,10,38,11.30
2013,04,29,10,39,19.30
2013,04,29,10,40,25.70
2013,04,29,10,41,16.10
2013,04,29,10,42,20.90
2013,04,29,10,43,22.50
2013,04,29,10,44,17.70
2013,04,29,10,45,16.10
2013,04,29,10,46,6.40
2013,04,29,10,47,19.30
2013,04,29,10,48,17.70
2013,04,29,10,49,6.40
2013,04,29,10,50,16.10
2013,04,29,10,51,8.10
2013,04,29,10,52,19.30
2013,04,29,10,53,20.90
2013,04,29,10,54,25.70
2013,04,29,10,55,24.20
2013,04,29,10,56,6.40
2013,04,29,10,57,16.10
2013,04,29,10,58,24.20
2013,04,29,10,59,22.50
2013,04,29,11,00,14.50
2013,04,29,11,01,16.10
2013,04,29,11,02,20.90
2013,04,29,11,03,16.10
2013,04,29,11,04,17.70
2013,04,29,11,05,16.10
2013,04,29,11,06,6.40
2013,04,29,11,07,6.40
2013,04,29,11,08,11.30
2013,04,29,11,09,8.10
2013,04,29,11,10,4.80
2013,04,29,11,11,9.60
2013,04,29,11,12,16.10
2013,04,29,11,13,19.30
2013,04,29,11,14,12.90
2013,04,29,11,15,16.10
2013,04,29,11,16,16.10
2013,04,29,11,17,19.30
2013,04,29,11,18,11.30
2013,04,29,11,19,32.20
2013,04,29,11,20,25.70
2013,04,29,11,21,19.30
2013,04,29,11,22,20.90
2013,04,29,11,23,17.70
2013,04,29,11,24,22.50
2013,04,29,11,25,6.40
2013,04,29,11,26,3.20
2013,04,29,11,27,16.10
2013,04,29,11,28,22.50
2013,04,29,11,29,19.30
2013,04,29,11,30,6.40
2013,04,29,11,31,16.10
2013,04,29,11,32,19.30
2013,04,29,11,33,11.30
2013,04,29,11,34,29.00
2013,04,29,11,35,22.50
2013,04,29,11,36,22.50
2013,04,29,11,37,19.30
2013,04,29,11,38,27.40
2013,04,29,11,39,17.70
2013,04,29,11,40,25.70
2013,04,29,11,41,11.30
2013,04,29,11,42,16.10
2013,04,29,11,43,14.50
2013,04,29,11,44,16.10
2013,04,29,11,45,29.00
2013,04,29,11,46,20.90
2013,04,29,11,47,22.50
2013,04,29,11,48,32.20
2013,04,29,11,49,22.50
2013,04,29,11,50,24.20
2013,04,29,11,51,14.50
2013,04,29,11,52,19.30
2013,04,29,11,53,27.40
2013,04,29,11,54,9.60
2013,04,29,11,55,17.70
2013,04,29,11,56,14.50
2013,04,29,11,57,14.50
2013,04,29,11,58,17.70
2013,04,29,11,59,32.20
2013,04,29,12,00,19.30
2013,04,29,12,01,14.50
2013,04,29,12,02,32.20
2013,04,29,12,03,29.00
2013,04,29,12,04,19.30
2013,04,29,12,05,11.30
2013,04,29,12,06,14.50
2013,04,29,12,07,22.50
2013,04,29,12,08,20.90
2013,04,29,12,09,19.30
2013,04,29,12,10,27.40
2013,04,29,12,11,22.50
2013,04,29,12,12,24.20
2013,04,29,12,13,17.70
2013,04,29,12,14,35.40
2013,04,29,12,15,30.60
2013,04,29,12,16,22.50
2013,04,29,12,17,16.10
2013,04,29,12,18,22.50
2013,04,29,12,19,27.40
2013,04,29,12,20,27.40
2013,04,29,12,21,22.50
2013,04,29,12,22,25.70
2013,04,29,12,23,24.20
2013,04,29,12,24,24.20
2013,04,29,12,25,14.50
2013,04,29,12,26,20.90
2013,04,29,12,27,17.70
2013,04,29,12,28,20.90
2013,04,29,12,29,27.40
2013,04,29,12,30,22.50
2013,04,29,12,31,30.60
2013,04,29,12,32,38.60
2013,04,29,12,33,32.20
2013,04,29,12,34,27.40
2013,04,29,12,35,20.90
2013,04,29,12,36,37.00
2013,04,29,12,37,22.50
2013,04,29,12,38,20.90
2013,04,29,12,39,19.30
2013,04,29,12,40,22.50
2013,04,29,12,41,27.40
2013,04,29,12,42,27.40
2013,04,29,12,43,35.40
2013,04,29,12,44,14.50
2013,04,29,12,45,29.00
2013,04,29,12,46,32.20
2013,04,29,12,47,25.70
2013,04,29,12,48,17.70
2013,04,29,12,49,22.50
2013,04,29,12,50,20.90
2013,04,29,12,51,20.90
2013,04,29,12,52,12.90
2013,04,29,12,53,16.10
2013,04,29,12,54,20.90
2013,04,29,12,55,38.60
2013,04,29,12,56,32.20
2013,04,29,12,57,22.50
2013,04,29,12,58,33.80
2013,04,29,12,59,25.70
2013,04,29,13,00,25.70
2013,04,29,13,01,9.60
2013,04,29,13,02,16.10
2013,04,29,13,03,22.50
2013,04,29,13,04,29.00
2013,04,29,13,05,20.90
2013,04,29,13,06,25.70
2013,04,29,13,07,29.00
2013,04,29,13,08,30.60
2013,04,29,13,09,19.30
2013,04,29,13,10,17.70
2013,04,29,13,11,22.50
2013,04,29,13,12,35.40
2013,04,29,13,13,29.00
2013,04,29,13,14,35.40
2013,04,29,13,15,22.50
2013,04,29,13,16,27.40
2013,04,29,13,17,30.60
2013,04,29,13,18,24.20
2013,04,29,13,19,24.20
2013,04,29,13,20,25.70
2013,04,29,13,21,22.50
2013,04,29,13,22,20.90
2013,04,29,13,23,27.40
2013,04,29,13,24,24.20
2013,04,29,13,25,27.40
2013,04,29,13,26,11.30
2013,04,29,13,27,20.90
2013,04,29,13,28,37.00
2013,04,29,13,29,24.20
2013,04,29,13,30,30.60
2013,04,29,13,31,25.70
2013,04,29,13,32,25.70
2013,04,29,13,33,24.20
2013,04,29,13,34,20.90
2013,04,29,13,35,29.00
2013,04,29,13,36,25.70
2013,04,29,13,37,22.50
2013,04,29,13,38,29.00
2013,04,29,13,39,27.40
2013,04,29,13,40,22.50
2013,04,29,13,41,30.60
2013,04,29,13,42,20.90
2013,04,29,13,43,25.70
2013,04,29,13,44,20.90
2013,04,29,13,45,25.70
2013,04,29,13,46,24.20
2013,04,29,13,47,29.00
2013,04,29,13,48,22.50
2013,04,29,13,49,20.90
2013,04,29,13,50,25.70
2013,04,29,13,51,30.60
2013,04,29,13,52,14.50
2013,04,29,13,53,17.70
2013,04,29,13,54,24.20
2013,04,29,13,55,40.20
2013,04,29,13,56,30.60
2013,04,29,13,57,20.90
2013,04,29,13,58,25.70
2013,04,29,13,59,27.40
2013,04,29,14,00,9.60
2013,04,29,14,01,19.30
2013,04,29,14,02,17.70
2013,04,29,14,03,29.00
2013,04,29,14,04,24.20
2013,04,29,14,05,20.90
2013,04,29,14,06,20.90
2013,04,29,14,07,16.10
2013,04,29,14,08,24.20
2013,04,29,14,09,30.60
2013,04,29,14,10,19.30
2013,04,29,14,11,33.80
2013,04,29,14,12,24.20
2013,04,29,14,13,19.30
2013,04,29,14,14,30.60
2013,04,29,14,15,20.90
2013,04,29,14,16,30.60
2013,04,29,14,17,22.50
2013,04,29,14,18,16.10
2013,04,29,14,19,40.20
2013,04,29,14,20,25.70
2013,04,29,14,21,38.60
2013,04,29,14,22,30.60
2013,04,29,14,23,22.50
2013,04,29,14,24,25.70
2013,04,29,14,25,25.70
2013,04,29,14,26,25.70
2013,04,29,14,27,17.70
2013,04,29,14,28,20.90
2013,04,29,14,29,33.80
2013,04,29,14,30,17.70
2013,04,29,14,31,33.80
2013,04,29,14,32,25.70
2013,04,29,14,33,25.70
2013,04,29,14,34,22.50
2013,04,29,14,35,33.80
2013,04,29,14,36,24.20
2013,04,29,14,37,25.70
2013,04,29,14,38,40.20
2013,04,29,14,39,25.70
2013,04,29,14,40,27.40
2013,04,29,14,41,24.20
2013,04,29,14,42,17.70
2013,04,29,14,43,37.00
2013,04,29,14,44,25.70
2013,04,29,14,45,22.50
2013,04,29,14,46,11.30
2013,04,29,14,47,16.10
2013,04,29,14,48,30.60
2013,04,29,14,49,25.70
2013,04,29,14,50,20.90
2013,04,29,14,51,11.30
2013,04,29,14,52,19.30
2013,04,29,14,53,29.00
2013,04,29,14,54,22.50
2013,04,29,14,55,25.70
2013,04,29,14,56,27.40
2013,04,29,14,57,22.50
2013,04,29,14,58,22.50
2013,04,29,14,59,20.90
2013,04,29,15,00,22.50
2013,04,29,15,01,25.70
2013,04,29,15,02,29.00
2013,04,29,15,03,30.60
2013,04,29,15,04,33.80
2013,04,29,15,05,29.00
2013,04,29,15,06,41.80
2013,04,29,15,07,51.50
2013,04,29,15,08,30.60
2013,04,29,15,09,17.70
2013,04,29,15,10,30.60
2013,04,29,15,11,27.40
2013,04,29,15,12,29.00
2013,04,29,15,13,40.20
2013,04,29,15,14,22.50
2013,04,29,15,15,38.60
2013,04,29,15,16,29.00
2013,04,29,15,17,20.90
2013,04,29,15,18,19.30
2013,04,29,15,19,27.40
2013,04,29,15,20,19.30
2013,04,29,15,21,14.50
2013,04,29,15,22,33.80
2013,04,29,15,23,25.70
2013,04,29,15,24,24.20
2013,04,29,15,25,16.10
2013,04,29,15,26,20.90
2013,04,29,15,27,19.30
2013,04,29,15,28,24.20
2013,04,29,15,29,20.90
2013,04,29,15,30,27.40
2013,04,29,15,31,19.30
2013,04,29,15,32,8.10
2013,04,29,15,33,32.20
2013,04,29,15,34,32.20
2013,04,29,15,35,22.50
2013,04,29,15,36,24.20
2013,04,29,15,37,29.00
2013,04,29,15,38,19.30
2013,04,29,15,39,24.20
2013,04,29,15,40,33.80
2013,04,29,15,41,25.70
2013,04,29,15,42,30.60
2013,04,29,15,43,20.90
2013,04,29,15,44,24.20
2013,04,29,15,45,30.60
2013,04,29,15,46,20.90
2013,04,29,15,47,24.20
2013,04,29,15,48,25.70
2013,04,29,15,49,30.60
2013,04,29,15,50,24.20
2013,04,29,15,51,25.70
2013,04,29,15,52,30.60
2013,04,29,15,53,37.00
2013,04,29,15,54,45.10
2013,04,29,15,55,22.50
2013,04,29,15,56,22.50
2013,04,29,15,57,19.30
2013,04,29,15,58,30.60
2013,04,29,15,59,29.00
2013,04,29,16,00,29.00
2013,04,29,16,01,24.20
2013,04,29,16,02,20.90
2013,04,29,16,03,11.30
2013,04,29,16,04,17.70
2013,04,29,16,05,25.70
2013,04,29,16,06,24.20
2013,04,29,16,07,30.60
2013,04,29,16,08,33.80
2013,04,29,16,09,22.50
2013,04,29,16,10,24.20
2013,04,29,16,11,27.40
2013,04,29,16,12,22.50
2013,04,29,16,13,11.30
2013,04,29,16,14,20.90
2013,04,29,16,15,20.90
2013,04,29,16,16,24.20
2013,04,29,16,17,30.60
2013,04,29,16,18,30.60
2013,04,29,16,19,40.20
2013,04,29,16,20,32.20
2013,04,29,16,21,24.20
2013,04,29,16,22,20.90
2013,04,29,16,23,24.20
2013,04,29,16,24,43.50
2013,04,29,16,25,40.20
2013,04,29,16,26,25.70
2013,04,29,16,27,24.20
2013,04,29,16,28,24.20
2013,04,29,16,29,37.00
2013,04,29,16,30,29.00
2013,04,29,16,31,27.40
2013,04,29,16,32,14.50
2013,04,29,16,33,16.10
2013,04,29,16,34,16.10
2013,04,29,16,35,22.50
2013,04,29,16,36,19.30
2013,04,29,16,37,20.90
2013,04,29,16,38,24.20
2013,04,29,16,39,14.50
2013,04,29,16,40,14.50
2013,04,29,16,41,19.30
2013,04,29,16,42,32.20
2013,04,29,16,43,19.30
2013,04,29,16,44,14.50
2013,04,29,16,45,19.30
2013,04,29,16,46,22.50
2013,04,29,16,47,27.40
2013,04,29,16,48,37.00
2013,04,29,16,49,30.60
2013,04,29,16,50,19.30
2013,04,29,16,51,41.80
2013,04,29,16,52,20.90
2013,04,29,16,53,30.60
2013,04,29,16,54,35.40
2013,04,29,16,55,30.60
2013,04,29,16,56,27.40
2013,04,29,16,57,25.70
2013,04,29,16,58,32.20
2013,04,29,16,59,25.70
2013,04,29,17,00,24.20
2013,04,29,17,01,24.20
2013,04,29,17,02,29.00
2013,04,29,17,03,27.40
2013,04,29,17,04,35.40
2013,04,29,17,05,33.80
2013,04,29,17,06,22.50
2013,04,29,17,07,16.10
2013,04,29,17,08,22.50
2013,04,29,17,09,16.10
2013,04,29,17,10,24.20
2013,04,29,17,11,27.40
2013,04,29,17,12,25.70
2013,04,29,17,13,27.40
2013,04,29,17,14,32.20
2013,04,29,17,15,19.30
2013,04,29,17,16,19.30
2013,04,29,17,17,9.60
2013,04,29,17,18,30.60
2013,04,29,17,19,30.60
2013,04,29,17,20,22.50
2013,04,29,17,21,37.00
2013,04,29,17,22,35.40
2013,04,29,17,23,30.60
2013,04,29,17,24,14.50
2013,04,29,17,25,30.60
2013,04,29,17,26,27.40
2013,04,29,17,27,25.70
2013,04,29,17,28,22.50
2013,04,29,17,29,29.00
2013,04,29,17,30,32.20
2013,04,29,17,31,32.20
2013,04,29,17,32,40.20
2013,04,29,17,33,24.20
2013,04,29,17,34,24.20
2013,04,29,17,35,25.70